Chattanooga, TN

10:54 AM EDT on March 24, 2017 (GMT -0400)
Lovell

Weather History for KCHA - December, 2013

Change the Weather History Date:

Sunday, December 22, 2013

  Actual Average Record
Temperature  
Mean Temperature 64 °F 41 °F  
Max Temperature 71 °F 51 °F 71 °F (2013)
Min Temperature 56 °F 32 °F 4 °F (1989)
Degree Days  
Heating Degree Days 1 24  
Month to date heating degree days 385 478  
Since 1 July heating degree days 1016 1067  
Growing Degree Days 8 (Base 50)    
Moisture  
Dew Point 56 °F    
Average Humidity 86    
Maximum Humidity 93    
Minimum Humidity 79    
Precipitation  
Precipitation 1.88 in 0.14 in 2.80 in (1990)
Month to date precipitation 6.57 3.57  
Year to date precipitation 67.36 51.15  
Snow  
Snow 0.00 in 0.00 in - ()
Month to date snowfall 0.0 0.1  
Since 1 July snowfall T 0.1  
Snow Depth 0.00 in    
Sea Level Pressure  
Sea Level Pressure 29.94 in    
Wind  
Wind Speed 7 mph (South)    
Max Wind Speed 24 mph    
Max Gust Speed 37 mph    
Visibility 6 miles    
Events Rain , Thunderstorm    
T = Trace of Precipitation, MM = Missing Value Source: NWS Daily Summary

Daily Weather History Graph

Daily Weather History Graph

Search for Another Location

Airport or City:

Trip Planner

Search our weather history database for the weather conditions in past years. The results will help you decide how hot, cold, wet, or windy it might be!

Date:

Astronomy

Dec. 22, 2013 Rise Set
Actual Time 7:45 AM EST 5:33 PM EST
Civil Twilight 7:17 AM EST 6:01 PM EST
Nautical Twilight 6:45 AM EST 6:33 PM EST
Astronomical Twilight 6:14 AM EST 7:04 PM EST
Moon 10:34 PM EST (12/22) 10:51 AM EST (12/22)
Length of Visible Light 10h 44m
Length of Day
9h 48m
Waning Gibbous, 77% of the Moon is Illuminated
Dec 22
Waning Gibbous
Dec 25
Last Quarter
Jan 1
New
Jan 7
First Quarter
Jan 15
Full

Hourly Weather History & Observations

Time (EST) Temp. Dew Point Humidity Pressure Visibility Wind Dir Wind Speed Gust Speed Precip Events Conditions
12:15 AM 69.8 °F 64.4 °F 83% 29.85 in 10.0 mi SSE 10.4 mph 18.4 mph N/A   Scattered Clouds
12:26 AM 69.8 °F 64.4 °F 83% 29.84 in 10.0 mi South 15.0 mph 20.7 mph N/A   Mostly Cloudy
12:53 AM 70.0 °F 64.9 °F 84% 29.83 in 10.0 mi South 10.4 mph 27.6 mph N/A   Overcast
1:53 AM 70.0 °F 64.9 °F 84% 29.81 in 10.0 mi South 11.5 mph 18.4 mph N/A   Overcast
2:53 AM 71.1 °F 64.9 °F 81% 29.80 in 10.0 mi South 13.8 mph 21.9 mph N/A   Overcast
3:38 AM 71.6 °F 64.4 °F 78% 29.85 in 10.0 mi SW 15.0 mph 19.6 mph N/A Thunderstorm Overcast
3:47 AM 62.6 °F 59.0 °F 88% 29.90 in 2.0 mi WSW 13.8 mph 36.8 mph 0.05 in Rain Heavy Rain
3:49 AM 60.8 °F 57.2 °F 88% 29.89 in 1.2 mi WSW 17.3 mph 36.8 mph 0.12 in Rain Heavy Rain
3:53 AM 61.0 °F 57.0 °F 87% 29.88 in 0.8 mi WSW 15.0 mph 26.5 mph 0.31 in Rain , Thunderstorm Heavy Thunderstorms and Rain
3:58 AM 60.8 °F 57.2 °F 88% 29.88 in 1.0 mi SSW 16.1 mph 23.0 mph 0.14 in Rain , Thunderstorm Heavy Thunderstorms and Rain
4:07 AM 60.8 °F 55.4 °F 82% 29.88 in 1.8 mi WSW 12.7 mph 25.3 mph 0.27 in Rain Heavy Rain
4:17 AM 60.8 °F 57.2 °F 88% 29.88 in 2.0 mi SSW 10.4 mph - 0.37 in Rain , Thunderstorm Heavy Thunderstorms and Rain
4:40 AM 59.0 °F 55.4 °F 88% 29.88 in 3.0 mi SSW 9.2 mph 16.1 mph 0.55 in Rain , Thunderstorm Heavy Thunderstorms and Rain
4:48 AM 59.0 °F 55.4 °F 88% 29.88 in 3.0 mi SW 9.2 mph - 0.59 in Rain , Thunderstorm Heavy Thunderstorms and Rain
4:53 AM 59.0 °F 55.9 °F 90% 29.88 in 2.5 mi SW 8.1 mph - 0.63 in Rain , Thunderstorm Heavy Rain
5:08 AM 59.0 °F 55.4 °F 88% 29.90 in 5.0 mi South 4.6 mph - 0.08 in Rain , Thunderstorm Heavy Thunderstorms and Rain
5:24 AM 57.2 °F 55.4 °F 94% 29.89 in 2.5 mi South 6.9 mph - 0.16 in Rain Heavy Rain
5:53 AM 57.9 °F 55.0 °F 90% 29.87 in 2.5 mi SW 3.5 mph - 0.32 in Rain Rain
6:29 AM 57.2 °F 55.4 °F 94% 29.93 in 4.0 mi Variable 4.6 mph - 0.13 in Rain Light Rain
6:53 AM 57.9 °F 55.0 °F 90% 29.92 in 3.0 mi SE 9.2 mph - 0.30 in Rain Heavy Rain
7:53 AM 57.0 °F 54.0 °F 89% 29.93 in 3.0 mi SE 10.4 mph - 0.17 in Rain Light Rain
8:53 AM 57.0 °F 54.0 °F 89% 29.95 in 5.0 mi South 4.6 mph - 0.08 in Rain Light Rain
9:53 AM 57.0 °F 53.1 °F 87% 29.96 in 5.0 mi ESE 5.8 mph - 0.00 in Rain Light Rain
10:53 AM 57.0 °F 53.1 °F 87% 29.98 in 5.0 mi Calm Calm - 0.03 in Rain Light Rain
11:30 AM 57.2 °F 53.6 °F 88% 30.01 in 5.0 mi WSW 3.5 mph - 0.00 in Rain Light Rain
11:53 AM 57.0 °F 55.0 °F 93% 29.99 in 5.0 mi SSW 3.5 mph - 0.00 in   Overcast
12:47 PM 57.2 °F 53.6 °F 88% 29.96 in 6.0 mi South 4.6 mph - N/A   Overcast
12:53 PM 57.9 °F 54.0 °F 87% 29.95 in 6.0 mi South 3.5 mph - N/A   Overcast
1:53 PM 59.0 °F 54.0 °F 83% 29.97 in 6.0 mi South 8.1 mph - N/A   Overcast
2:53 PM 59.0 °F 54.0 °F 83% 29.97 in 10.0 mi South 5.8 mph - N/A   Overcast
3:31 PM 59.0 °F 53.6 °F 82% 29.98 in 10.0 mi SSE 8.1 mph - N/A   Overcast
3:53 PM 59.0 °F 54.0 °F 83% 29.98 in 10.0 mi South 8.1 mph - N/A   Overcast
4:53 PM 57.9 °F 54.0 °F 87% 30.00 in 7.0 mi South 9.2 mph - 0.00 in Rain Light Rain
5:53 PM 57.9 °F 55.0 °F 90% 30.01 in 10.0 mi South 3.5 mph - 0.00 in   Mostly Cloudy
6:53 PM 57.9 °F 55.0 °F 90% 30.03 in 10.0 mi South 5.8 mph - N/A   Mostly Cloudy
7:53 PM 57.0 °F 54.0 °F 89% 30.04 in 10.0 mi South 3.5 mph - N/A   Mostly Cloudy
8:08 PM 57.2 °F 53.6 °F 88% 30.05 in 10.0 mi SW 3.5 mph - N/A   Mostly Cloudy
8:53 PM 55.9 °F 54.0 °F 93% 30.03 in 10.0 mi ESE 4.6 mph - N/A   Mostly Cloudy
9:53 PM 57.0 °F 54.0 °F 89% 30.06 in 10.0 mi South 3.5 mph - 0.00 in Rain Light Rain
10:53 PM 55.9 °F 54.0 °F 93% 30.07 in 6.0 mi South 4.6 mph - 0.01 in Rain Light Rain
11:44 PM 55.4 °F 53.6 °F 94% 30.06 in 3.0 mi Calm Calm - 0.03 in Rain Rain
11:53 PM 55.9 °F 54.0 °F 93% 30.06 in 3.0 mi Calm Calm - 0.03 in Rain Light Rain